Wind_Speed
17 16 16 17 18 20 22 23 25 28 32 34 36 34 33 32 30 28 28 29 31 33 34 36 37 38 39 41 42 43 44 45 46 47 49 50 52 53 55 57 58 59 59 59
16 16 17 16 18 19 21 23 25 29 31 32 34 36 33 30 27 27 28 30 32 34 36 38 39 41 42 42 43 44 45 46 48 50 51 53 54 55 56 56 57 57 57 57
15 17 17 17 19 21 22 24 27 29 31 32 32 30 31 30 30 31 32 33 34 35 36 37 39 40 41 41 42 43 45 46 48 49 50 50 52 53 53 54 54 55 55 54
16 17 18 22 23 23 24 25 27 29 31 33 33 34 33 33 33 33 33 33 34 35 36 36 36 37 38 40 40 41 43 45 46 47 48 50 51 51 52 52 53 53 53 53
16 16 18 23 24 25 26 28 28 29 31 32 32 33 34 34 33 33 32 32 33 34 34 34 36 37 37 38 40 42 44 45 45 46 47 47 48 49 49 50 50 50 50 50
16 18 20 22 23 23 24 27 27 28 29 30 31 32 33 32 31 31 31 31 31 32 33 34 36 36 37 38 40 41 42 43 43 44 44 45 46 46 47 47 48 48 47 47
16 18 20 21 23 23 24 25 24 26 27 27 28 28 28 28 28 29 30 30 31 31 32 33 34 35 36 36 38 39 40 40 41 42 43 43 44 45 45 45 45 44 44 44
16 17 19 19 20 22 22 23 23 23 23 24 24 24 25 26 26 27 28 28 29 30 31 31 32 33 34 35 36 37 38 39 40 41 42 42 42 41 41 40 40 39 38 37
16 17 18 17 18 19 20 21 21 21 21 21 22 22 23 24 24 25 26 27 27 27 28 29 30 31 32 33 34 35 37 38 38 39 39 38 37 36 35 34 34 33 33 32
15 16 16 16 16 17 18 19 20 20 20 20 20 21 21 21 23 23 23 23 23 24 26 27 28 29 30 31 32 34 34 35 35 34 34 32 31 31 30 29 29 28 27 25
15 15 15 14 15 15 17 18 18 18 19 19 19 19 20 20 19 19 19 20 21 22 23 24 25 27 28 30 31 31 31 31 30 29 28 27 26 26 26 25 24 23 21 19
14 14 14 14 15 16 16 16 16 16 16 17 17 17 17 16 16 17 18 18 19 20 21 22 24 25 26 27 28 28 28 27 26 24 23 22 22 21 21 20 19 18 15 13
14 14 14 15 15 15 15 15 15 15 15 15 14 14 13 14 14 15 16 17 17 18 19 21 23 23 24 24 24 24 24 23 22 20 19 19 18 18 18 17 16 14 12 10
14 14 14 13 13 14 14 13 13 13 13 12 12 12 12 12 13 14 15 15 16 17 19 20 20 20 21 22 22 22 21 20 18 17 17 16 15 15 15 14 12 11 11 10
13 13 13 13 14 14 14 13 12 12 11 10 10 10 10 11 12 13 13 14 15 16 17 18 18 19 20 20 19 19 18 17 16 15 14 14 13 13 13 12 12 11 11 11
13 13 13 13 13 13 12 11 10 9 8 8 8 8 9 10 11 11 12 13 14 16 17 17 17 18 18 17 16 16 16 15 14 13 13 12 12 12 12 12 12 11 11 12
13 12 12 12 12 12 11 10 8 7 7 7 7 8 9 9 9 10 11 13 14 15 15 16 16 16 15 15 14 13 13 12 12 12 12 12 12 13 13 12 12 12 12 12
12 12 11 11 11 11 10 8 7 6 6 6 7 8 8 8 9 10 11 12 14 14 14 14 14 14 13 13 12 12 11 11 12 12 12 12 12 13 12 12 12 12 13 13
12 11 11 11 10 10 9 7 6 6 6 6 7 7 7 8 10 10 11 12 13 13 13 13 13 13 13 12 11 11 10 11 11 11 12 12 12 12 12 13 13 13 13 14
11 11 11 10 9 9 7 6 5 5 5 5 6 7 8 9 10 11 12 13 14 14 14 13 13 12 12 12 11 10 11 11 11 11 11 12 12 12 12 13 13 13 13 13
10 10 10 9 8 7 6 4 4 4 4 5 6 7 8 9 10 11 12 13 14 14 14 14 13 13 12 12 11 11 11 11 11 11 11 11 11 12 12 12 13 13 13 13
9 8 8 7 6 5 4 3 3 3 3 4 5 7 8 9 10 11 12 14 14 15 15 14 15 15 14 13 11 11 12 11 11 11 11 11 11 11 11 12 12 12 12 12
8 7 6 6 5 4 3 2 2 2 3 4 5 6 7 8 9 11 12 14 15 16 16 16 16 16 16 15 14 14 13 13 12 11 11 11 10 10 10 11 11 11 12 12
8 7 6 5 4 3 2 2 1 1 2 3 4 5 7 8 9 10 12 14 15 16 16 17 18 19 18 16 16 16 16 15 14 14 13 13 12 12 11 11 11 11 12 12
8 7 6 5 4 3 2 2 1 0 1 2 3 4 6 7 9 10 11 13 14 14 15 16 18 18 18 18 19 19 18 17 16 15 15 15 14 14 13 13 12 12 12 12
8 7 6 5 4 3 3 3 2 1 1 1 2 3 5 6 7 9 10 11 13 13 14 15 17 17 18 19 20 19 19 18 17 17 16 16 15 14 14 14 13 13 13 13
9 8 7 6 5 5 4 4 3 3 3 2 2 2 3 4 6 7 8 9 11 12 13 14 15 16 17 18 18 19 19 19 18 18 17 16 16 16 15 15 15 14 14 14
Wind_Direction
261 266 265 257 246 237 236 240 246 246 247 251 255 259 260 260 260 258 258 260 260 260 262 264 266 267 269 270 271 272 274 276 278 279 281 282 282 283 284 286 287 288 289 290
260 268 272 270 256 251 245 246 247 251 255 254 261 260 264 263 261 266 265 263 263 266 268 267 269 270 271 273 274 274 275 278 280 282 282 283 283 284 285 287 288 289 290 291
263 257 262 263 258 254 251 251 252 256 259 263 267 267 268 270 271 270 271 271 269 269 271 272 273 275 274 275 277 279 280 281 283 284 285 286 286 286 289 291 292 292 292 292
268 262 255 252 255 259 261 262 261 260 262 266 268 269 272 275 276 275 274 273 274 275 276 277 277 279 281 283 282 284 286 286 286 287 288 290 291 291 292 292 292 292 292 293
271 265 260 257 262 262 263 265 265 266 265 267 269 271 274 276 277 277 276 277 278 280 281 281 283 285 284 285 287 287 289 290 291 291 292 293 293 293 293 294 294 294 294 294
274 269 260 261 263 265 266 265 268 270 270 270 271 273 274 276 278 280 279 280 281 281 282 284 285 286 287 288 290 291 292 293 294 295 295 296 296 296 296 296 296 296 295 296
280 275 270 270 270 273 274 276 275 274 274 274 273 273 275 277 278 280 281 281 281 282 283 284 287 288 290 292 294 296 297 298 298 298 298 299 299 298 298 298 298 297 298 298
288 282 280 281 276 275 276 280 282 282 280 279 279 279 279 281 283 284 284 284 284 285 286 288 290 292 295 298 299 300 301 301 302 302 301 301 301 301 301 300 300 300 301 301
296 291 287 286 284 282 284 284 285 285 286 285 285 285 285 286 286 287 288 289 288 290 293 295 297 300 302 303 303 304 305 305 306 306 306 306 305 304 304 304 304 304 304 304
302 298 294 292 289 288 288 288 288 288 288 289 288 287 286 287 288 288 289 292 295 297 299 301 304 306 307 308 309 310 311 311 311 311 311 310 310 309 309 309 309 310 310 309
310 306 303 300 297 294 294 294 291 290 290 291 293 292 292 294 295 296 298 300 301 302 304 306 308 311 313 314 314 314 315 315 315 316 316 316 316 315 316 317 318 318 317 317
314 311 309 307 305 302 300 299 296 297 296 296 296 297 299 300 300 302 303 305 307 308 310 312 315 316 317 318 319 321 321 321 321 321 322 322 323 325 326 328 329 330 331 334
313 311 309 307 308 306 305 304 300 299 299 300 300 301 302 304 306 307 309 311 313 315 317 319 320 321 323 326 328 329 328 328 328 328 329 331 333 334 336 339 343 348 356 4
314 314 312 312 313 312 309 309 307 305 303 303 304 306 308 309 311 312 315 318 320 322 324 325 326 328 330 332 333 334 334 334 335 336 335 337 340 343 347 353 0 9 18 29
316 316 316 315 317 318 316 314 311 311 309 308 309 313 315 316 318 320 323 324 326 327 329 330 330 332 333 334 336 338 339 340 343 345 347 350 353 358 3 11 18 27 37 45
315 317 318 319 321 322 323 322 320 320 319 316 319 323 324 324 325 328 330 331 332 333 333 333 333 335 337 339 342 344 346 351 358 2 5 9 13 16 21 26 33 41 48 55
314 317 320 322 324 327 329 328 329 329 328 329 333 335 337 339 340 340 340 340 340 339 340 340 341 343 345 348 351 355 2 8 13 16 19 21 23 26 30 35 42 50 58 62
311 314 317 320 324 328 332 332 332 336 339 343 344 347 352 354 352 350 350 350 350 350 351 352 354 356 359 0 4 9 15 21 22 22 24 26 28 31 36 43 51 59 65 69
311 315 319 322 325 328 329 330 334 343 348 348 353 2 6 4 4 4 2 0 0 0 1 1 3 6 9 12 16 17 21 22 23 25 28 31 35 40 46 53 59 64 69 73
310 314 319 321 325 329 332 333 340 349 357 3 11 15 14 15 15 12 8 7 10 12 13 13 13 12 14 18 20 21 25 27 30 33 36 39 45 50 55 59 63 68 71 74
307 313 318 322 326 331 334 337 350 3 11 19 21 20 21 22 20 19 17 19 21 22 22 21 21 22 24 27 27 31 35 37 38 41 44 48 52 57 60 63 67 70 72 75
304 309 317 325 330 334 336 339 353 8 25 31 26 25 27 28 28 27 27 30 31 31 30 29 31 33 35 35 36 40 41 41 43 46 48 51 55 59 63 66 68 71 73 76
294 299 310 320 325 327 330 336 350 16 35 36 33 35 37 38 37 37 38 37 37 37 36 37 40 42 43 42 44 45 44 45 47 49 50 53 58 62 66 68 70 72 75 75
282 286 297 307 311 313 317 329 348 16 41 46 45 47 45 44 44 44 41 41 42 42 43 44 47 47 46 46 49 50 50 50 52 53 55 59 63 67 70 71 73 74 75 74
273 275 283 290 292 291 283 275 283 303 92 71 63 60 54 51 49 46 45 46 47 47 48 49 49 49 48 50 52 52 52 54 55 57 60 63 66 69 71 72 73 73 73 72
265 266 268 270 273 267 259 252 246 219 177 129 97 80 66 59 54 52 52 53 52 51 51 51 51 50 50 51 52 52 53 55 57 60 62 64 66 68 69 71 72 73 73 73
256 256 257 261 262 253 244 238 232 218 204 192 159 121 88 70 62 59 58 57 54 51 49 49 49 49 49 50 51 51 52 54 56 59 62 64 65 66 69 71 72 74 75 76
Height
5748 5748 5749 5750 5752 5753 5754 5755 5757 5757 5756 5756 5756 5754 5752 5752 5753 5754 5756 5757 5757 5757 5757 5757 5756 5755 5754 5753 5752 5750 5748 5746 5744 5741 5739 5736 5732 5729 5725 5721 5717 5713 5708 5704
5746 5745 5745 5745 5747 5748 5748 5748 5748 5748 5748 5748 5748 5747 5746 5745 5746 5746 5748 5749 5749 5748 5748 5747 5746 5745 5744 5742 5741 5739 5736 5734 5732 5729 5726 5722 5719 5715 5711 5707 5702 5698 5694 5690
5742 5742 5742 5742 5741 5741 5740 5740 5741 5742 5743 5741 5741 5740 5739 5739 5740 5740 5740 5741 5740 5739 5738 5737 5736 5734 5733 5732 5730 5728 5726 5723 5720 5717 5713 5709 5705 5701 5697 5692 5688 5684 5679 5675
5737 5738 5738 5738 5736 5736 5735 5734 5736 5736 5735 5734 5734 5734 5733 5733 5733 5733 5733 5732 5731 5731 5730 5728 5727 5725 5723 5721 5719 5717 5714 5711 5707 5704 5700 5696 5692 5688 5683 5678 5674 5670 5665 5661
5733 5733 5732 5730 5730 5730 5730 5729 5729 5729 5729 5728 5728 5727 5726 5726 5726 5726 5725 5725 5724 5722 5721 5719 5718 5716 5713 5711 5708 5706 5702 5699 5695 5692 5688 5683 5679 5674 5670 5665 5660 5656 5651 5646
5728 5727 5726 5726 5725 5724 5725 5723 5723 5722 5722 5722 5721 5721 5720 5719 5719 5718 5717 5717 5716 5714 5712 5711 5708 5706 5704 5701 5698 5695 5692 5688 5684 5680 5676 5671 5666 5662 5657 5652 5647 5642 5638 5633
5724 5722 5721 5721 5720 5720 5721 5719 5717 5716 5716 5715 5715 5714 5713 5712 5712 5711 5710 5709 5708 5706 5704 5702 5700 5697 5694 5691 5688 5685 5681 5677 5673 5668 5664 5659 5654 5649 5644 5639 5634 5630 5625 5621
5720 5718 5719 5716 5716 5716 5714 5712 5711 5711 5710 5709 5709 5708 5707 5706 5706 5705 5703 5702 5700 5698 5696 5694 5691 5689 5686 5682 5679 5675 5671 5667 5662 5657 5653 5648 5643 5637 5632 5627 5623 5618 5614 5610
5716 5716 5714 5712 5711 5710 5709 5708 5707 5706 5705 5704 5703 5702 5702 5701 5700 5698 5697 5695 5693 5691 5689 5687 5684 5681 5678 5674 5670 5666 5661 5657 5651 5646 5641 5636 5632 5627 5623 5618 5613 5609 5605 5601
5712 5710 5709 5708 5707 5706 5705 5703 5702 5701 5700 5700 5699 5698 5697 5696 5694 5693 5691 5689 5687 5685 5683 5680 5677 5674 5670 5666 5662 5657 5652 5647 5642 5637 5632 5628 5623 5619 5615 5610 5606 5602 5598 5594
5710 5708 5706 5705 5703 5702 5701 5699 5698 5697 5696 5695 5694 5693 5692 5691 5689 5688 5686 5684 5682 5680 5677 5675 5671 5668 5664 5659 5655 5650 5645 5640 5635 5631 5626 5621 5617 5613 5609 5604 5600 5596 5593 5589
5708 5706 5704 5702 5701 5699 5697 5696 5694 5693 5692 5691 5690 5689 5687 5686 5685 5683 5681 5679 5677 5675 5672 5669 5666 5662 5658 5654 5649 5644 5639 5634 5630 5626 5622 5617 5613 5609 5605 5601 5597 5593 5590 5587
5705 5703 5701 5700 5698 5696 5694 5693 5691 5690 5689 5688 5686 5685 5684 5683 5681 5679 5677 5675 5673 5670 5667 5664 5661 5657 5653 5649 5644 5640 5635 5630 5626 5622 5618 5615 5611 5607 5603 5599 5596 5592 5589 5587
5703 5701 5699 5697 5696 5694 5692 5690 5689 5687 5686 5685 5683 5682 5681 5680 5678 5676 5674 5672 5669 5667 5664 5661 5657 5653 5649 5645 5641 5637 5632 5628 5624 5620 5617 5613 5610 5606 5603 5599 5596 5593 5591 5588
5701 5699 5697 5695 5693 5691 5690 5688 5686 5685 5683 5682 5681 5680 5679 5677 5676 5674 5671 5669 5667 5664 5661 5658 5654 5651 5647 5643 5639 5635 5631 5627 5623 5619 5616 5613 5609 5606 5603 5600 5598 5595 5593 5592
5699 5697 5695 5694 5692 5690 5688 5686 5684 5683 5682 5681 5680 5678 5677 5675 5674 5672 5670 5667 5665 5662 5659 5655 5652 5648 5644 5641 5637 5633 5629 5626 5622 5619 5616 5613 5610 5608 5605 5602 5600 5598 5596 5595
5697 5696 5694 5692 5690 5688 5686 5685 5683 5682 5681 5680 5679 5677 5676 5674 5672 5670 5668 5666 5663 5660 5657 5653 5650 5646 5643 5639 5636 5633 5630 5626 5624 5621 5618 5615 5613 5610 5607 5605 5603 5602 5600 5599
5695 5694 5692 5691 5689 5687 5686 5684 5683 5681 5680 5679 5678 5677 5675 5674 5672 5670 5668 5665 5662 5659 5656 5652 5649 5645 5642 5639 5636 5633 5630 5628 5625 5623 5620 5618 5615 5613 5610 5608 5607 5605 5604 5603
5694 5692 5691 5689 5688 5686 5685 5683 5682 5681 5680 5679 5678 5677 5675 5674 5672 5670 5668 5665 5662 5659 5656 5652 5649 5646 5643 5640 5637 5635 5632 5630 5627 5625 5622 5620 5618 5616 5614 5612 5611 5609 5608 5608
5692 5691 5690 5688 5687 5686 5684 5683 5682 5682 5681 5680 5678 5677 5676 5674 5672 5670 5668 5665 5662 5659 5656 5653 5650 5647 5644 5641 5639 5637 5634 5632 5629 5627 5625 5623 5621 5619 5618 5616 5615 5614 5613 5612
5691 5690 5689 5688 5686 5685 5684 5683 5683 5682 5681 5680 5680 5678 5677 5675 5674 5672 5669 5667 5664 5661 5658 5655 5652 5649 5646 5643 5641 5639 5636 5634 5632 5630 5628 5626 5624 5623 5622 5620 5619 5618 5618 5617
5689 5689 5688 5687 5686 5685 5684 5684 5683 5683 5682 5682 5681 5680 5678 5677 5675 5673 5671 5669 5666 5663 5660 5657 5654 5651 5648 5646 5643 5641 5639 5637 5635 5633 5631 5629 5628 5627 5626 5625 5624 5623 5622 5621
5688 5688 5687 5687 5686 5685 5685 5684 5684 5684 5683 5683 5682 5681 5680 5679 5677 5676 5674 5671 5669 5666 5663 5660 5657 5654 5651 5649 5647 5644 5642 5640 5638 5636 5634 5633 5631 5630 5629 5629 5628 5627 5626 5626
5687 5687 5686 5686 5686 5685 5685 5685 5685 5685 5684 5684 5683 5683 5682 5681 5680 5678 5676 5674 5672 5670 5667 5664 5661 5658 5656 5654 5650 5648 5646 5643 5642 5640 5638 5636 5635 5634 5633 5632 5632 5631 5630 5630
5685 5685 5685 5685 5685 5685 5685 5685 5685 5685 5685 5685 5685 5684 5684 5683 5682 5681 5679 5677 5675 5673 5671 5669 5666 5663 5661 5658 5655 5653 5650 5648 5646 5644 5642 5641 5639 5638 5637 5637 5636 5635 5634 5634
5683 5684 5684 5684 5685 5685 5685 5685 5685 5685 5686 5686 5686 5686 5685 5685 5684 5683 5682 5680 5679 5677 5675 5673 5671 5668 5666 5663 5660 5658 5656 5653 5651 5649 5648 5646 5644 5643 5642 5641 5640 5639 5639 5638
5681 5682 5683 5683 5684 5684 5684 5685 5685 5686 5686 5686 5687 5687 5687 5686 5686 5685 5684 5683 5682 5681 5679 5677 5675 5672 5670 5668 5666 5664 5661 5659 5657 5655 5653 5651 5650 5648 5647 5646 5645 5644 5643 5643